When you browse on this site, cookies collect data to enhance your experience and personalize the content and advertising you see.
Visit our Privacy Policy to learn more. By continuing to use the site, you agree to this use of cookies and data.
  • In Austria
  • List of Countries
  • For 7 days
  • Water Temperature
  • Satellite Maps
  • Weather Map
  • News
  • Weather Widgets
  • user-avatar
    Login

    Hourly Weather Chechuzhyne

    Today, 18 January, Friday

    Time Temperature Precipitation Wind Pressure Humidity
    00:00 -5°C° 0 mm 6 mps 753 mmHg 88%
    01:00 -4°C° 0 mm 6 mps 753 mmHg 90%
    02:00 -2°C° 0 mm 5 mps 752 mmHg 92%
    03:00 -2°C° 0 mm 5 mps 752 mmHg 93%
    04:00 -1°C° 0 mm 4 mps 752 mmHg 94%
    05:00 -1°C° 0 mm 4 mps 752 mmHg 96%
    06:00 -1°C° 0 mm 4 mps 752 mmHg 96%
    07:00 -1°C° 0 mm 4 mps 752 mmHg 97%
    08:00 -1°C° 0 mm 4 mps 751 mmHg 98%
    09:00 -1°C° 0 mm 4 mps 751 mmHg 99%
    10:00 -1°C° 0 mm 4 mps 751 mmHg 99%
    11:00 0°C° 0 mm 3 mps 751 mmHg 100%
    12:00 0°C° 0 mm 3 mps 751 mmHg 100%
    13:00 0°C° 0 mm 3 mps 751 mmHg 100%
    14:00 0°C° 0 mm 3 mps 751 mmHg 100%
    15:00 0°C° 0 mm 3 mps 751 mmHg 98%
    16:00 -1°C° 0 mm 3 mps 751 mmHg 97%
    17:00 -2°C° 0 mm 3 mps 751 mmHg 95%
    18:00 -2°C° 0 mm 3 mps 751 mmHg 94%
    19:00 -4°C° 0 mm 3 mps 751 mmHg 93%
    20:00 -5°C° 0 mm 3 mps 751 mmHg 92%
    21:00 -5°C° 0 mm 3 mps 751 mmHg 92%
    22:00 -5°C° 0 mm 3 mps 751 mmHg 92%
    23:00 -5°C° 0 mm 3 mps 751 mmHg 91%

    Tomorrow, 19 January, Saturday

    Time Temperature Precipitation Wind Pressure Humidity
    00:00 -5°C° 0 mm 3 mps 752 mmHg 92%
    01:00 -5°C° 0 mm 2 mps 752 mmHg 93%
    02:00 -5°C° 0 mm 2 mps 752 mmHg 93%
    03:00 -4°C° 0.2 mm 2 mps 752 mmHg 94%
    04:00 -3°C° 0.2 mm 2 mps 752 mmHg 95%
    05:00 -1°C° 0.2 mm 2 mps 752 mmHg 96%
    06:00 -1°C° 0.4 mm 3 mps 753 mmHg 95%
    07:00 -2°C° 0.4 mm 4 mps 754 mmHg 95%
    08:00 -2°C° 0.4 mm 5 mps 754 mmHg 94%
    09:00 -4°C° 0 mm 5 mps 755 mmHg 91%
    10:00 -5°C° 0 mm 5 mps 755 mmHg 89%
    11:00 -6°C° 0 mm 5 mps 756 mmHg 87%
    12:00 -5°C° 0 mm 4 mps 756 mmHg 87%
    13:00 -7°C° 0 mm 4 mps 757 mmHg 87%
    14:00 -6°C° 0 mm 3 mps 757 mmHg 87%
    15:00 -7°C° 0 mm 3 mps 758 mmHg 88%
    16:00 -9°C° 0 mm 3 mps 758 mmHg 90%
    17:00 -10°C° 0 mm 3 mps 759 mmHg 91%
    18:00 -9°C° 0 mm 2 mps 759 mmHg 92%
    19:00 -9°C° 0 mm 2 mps 759 mmHg 93%
    20:00 -10°C° 0 mm 2 mps 760 mmHg 93%
    21:00 -10°C° 0 mm 2 mps 760 mmHg 94%
    22:00 -10°C° 0 mm 2 mps 760 mmHg 94%
    23:00 -12°C° 0 mm 2 mps 760 mmHg 95%

    Day after tomorrow, 20 January, Sunday

    Time Temperature Precipitation Wind Pressure Humidity
    00:00 -10°C° 0 mm 1 mps 761 mmHg 95%
    01:00 -10°C° 0 mm 1 mps 761 mmHg 95%
    02:00 -10°C° 0 mm 1 mps 761 mmHg 95%
    03:00 -11°C° 0 mm 1 mps 761 mmHg 95%
    04:00 -11°C° 0 mm 1 mps 761 mmHg 95%
    05:00 -11°C° 0 mm 1 mps 761 mmHg 95%
    06:00 -11°C° 0 mm 1 mps 761 mmHg 95%
    07:00 -11°C° 0 mm 1 mps 761 mmHg 94%
    08:00 -11°C° 0 mm 1 mps 761 mmHg 94%
    09:00 -10°C° 0 mm 1 mps 761 mmHg 92%
    10:00 -8°C° 0 mm 1 mps 761 mmHg 91%
    11:00 -8°C° 0 mm 2 mps 761 mmHg 90%
    12:00 -7°C° 0 mm 2 mps 760 mmHg 90%
    13:00 -7°C° 0 mm 2 mps 760 mmHg 91%
    14:00 -4°C° 0 mm 1 mps 759 mmHg 91%
    15:00 -7°C° 0 mm 2 mps 759 mmHg 91%
    16:00 -8°C° 0 mm 2 mps 759 mmHg 91%
    17:00 -10°C° 0 mm 2 mps 758 mmHg 92%
    18:00 -9°C° 0 mm 2 mps 758 mmHg 92%
    19:00 -9°C° 0 mm 2 mps 758 mmHg 92%
    20:00 -8°C° 0 mm 2 mps 758 mmHg 92%
    21:00 -8°C° 0 mm 2 mps 757 mmHg 91%
    22:00 -7°C° 0 mm 2 mps 757 mmHg 91%
    23:00 -7°C° 0 mm 2 mps 757 mmHg 90%

    21 January, Monday

    Time Temperature Precipitation Wind Pressure Humidity
    00:00 -6°C° 0.1 mm 2 mps 756 mmHg 91%
    01:00 -7°C° 0.1 mm 3 mps 756 mmHg 92%
    02:00 -7°C° 0.1 mm 3 mps 756 mmHg 93%
    03:00 -6°C° 0.3 mm 3 mps 755 mmHg 94%
    04:00 -6°C° 0.3 mm 3 mps 754 mmHg 95%
    05:00 -6°C° 0.3 mm 3 mps 753 mmHg 96%
    06:00 -5°C° 0.5 mm 2 mps 753 mmHg 97%
    07:00 -3°C° 0.5 mm 1 mps 753 mmHg 97%
    08:00 -2°C° 0.5 mm 1 mps 753 mmHg 98%
    09:00 -2°C° 0.5 mm 1 mps 752 mmHg 97%
    10:00 -4°C° 0.5 mm 2 mps 752 mmHg 96%
    11:00 -4°C° 0.5 mm 3 mps 752 mmHg 95%
    12:00 -4°C° 0.1 mm 4 mps 752 mmHg 93%
    13:00 -6°C° 0.1 mm 5 mps 752 mmHg 91%
    14:00 -6°C° 0.1 mm 6 mps 753 mmHg 90%
    15:00 -8°C° 0 mm 6 mps 753 mmHg 89%
    16:00 -9°C° 0 mm 7 mps 754 mmHg 88%
    17:00 -11°C° 0 mm 7 mps 755 mmHg 87%
    18:00 -10°C° 0 mm 6 mps 756 mmHg 88%
    19:00 -11°C° 0 mm 5 mps 757 mmHg 88%
    20:00 -11°C° 0 mm 4 mps 757 mmHg 89%
    21:00 -12°C° 0 mm 4 mps 758 mmHg 91%
    22:00 -14°C° 0 mm 4 mps 758 mmHg 92%
    23:00 -16°C° 0 mm 4 mps 759 mmHg 94%

    22 January, Tuesday

    Time Temperature Precipitation Wind Pressure Humidity
    00:00 -16°C° 0 mm 3 mps 759 mmHg 94%
    01:00 -17°C° 0 mm 3 mps 760 mmHg 94%
    02:00 -18°C° 0 mm 3 mps 760 mmHg 94%
    03:00 -17°C° 0 mm 2 mps 760 mmHg 94%
    04:00 -18°C° 0 mm 2 mps 760 mmHg 93%
    05:00 -18°C° 0 mm 2 mps 760 mmHg 93%
    06:00 -18°C° 0 mm 2 mps 761 mmHg 93%
    07:00 -16°C° 0 mm 1 mps 761 mmHg 93%
    08:00 -16°C° 0 mm 1 mps 761 mmHg 93%
    09:00 -15°C° 0 mm 1 mps 761 mmHg 92%
    10:00 -13°C° 0 mm 1 mps 761 mmHg 91%
    11:00 -11°C° 0 mm 1 mps 761 mmHg 90%
    12:00 -10°C° 0 mm 1 mps 761 mmHg 91%
    13:00 -9°C° 0 mm 1 mps 761 mmHg 91%
    14:00 -9°C° 0 mm 1 mps 760 mmHg 91%
    15:00 -10°C° 0 mm 1 mps 760 mmHg 92%
    16:00 -11°C° 0 mm 1 mps 760 mmHg 92%
    17:00 -14°C° 0 mm 2 mps 760 mmHg 93%
    18:00 -14°C° 0 mm 2 mps 760 mmHg 92%
    19:00 -15°C° 0 mm 2 mps 760 mmHg 91%
    20:00 -15°C° 0 mm 2 mps 760 mmHg 90%
    21:00 -15°C° 0 mm 2 mps 760 mmHg 89%
    22:00 -15°C° 0 mm 2 mps 759 mmHg 88%
    23:00 -16°C° 0 mm 2 mps 759 mmHg 87%

    23 January, Wednesday

    Time Temperature Precipitation Wind Pressure Humidity
    00:00 -16°C° 0 mm 2 mps 759 mmHg 86%
    01:00 -16°C° 0 mm 2 mps 759 mmHg 85%
    02:00 -17°C° 0 mm 2 mps 759 mmHg 84%
    03:00 -18°C° 0 mm 3 mps 758 mmHg 85%
    04:00 -18°C° 0 mm 3 mps 758 mmHg 86%
    05:00 -18°C° 0 mm 3 mps 758 mmHg 86%
    06:00 -18°C° 0 mm 3 mps 758 mmHg 86%
    07:00 -18°C° 0 mm 3 mps 758 mmHg 85%
    08:00 -18°C° 0 mm 3 mps 758 mmHg 85%
    09:00 -17°C° 0 mm 4 mps 758 mmHg 84%
    10:00 -16°C° 0 mm 4 mps 757 mmHg 84%
    11:00 -14°C° 0 mm 5 mps 757 mmHg 83%
    12:00 -13°C° 0 mm 5 mps 757 mmHg 83%
    13:00 -13°C° 0 mm 5 mps 756 mmHg 83%
    14:00 -12°C° 0 mm 5 mps 756 mmHg 84%
    15:00 -13°C° 0 mm 5 mps 756 mmHg 85%
    16:00 -14°C° 0 mm 5 mps 755 mmHg 86%
    17:00 -15°C° 0 mm 5 mps 755 mmHg 87%
    18:00 -15°C° 0 mm 5 mps 755 mmHg 87%
    19:00 -15°C° 0 mm 5 mps 755 mmHg 87%
    20:00 -17°C° 0 mm 6 mps 754 mmHg 87%
    21:00 -16°C° 0 mm 6 mps 754 mmHg 88%
    22:00 -16°C° 0 mm 6 mps 754 mmHg 89%
    23:00 -16°C° 0 mm 6 mps 754 mmHg 90%
    Show more